Location: Austin
(30.3000°N, 97.7500°W)
Time: 23:16:22
(UTC-05:00)

Terra - Pass Details

Date: 06 May 2026
Orbit: 688 x 691 km, 97.9° (Epoch: 13 May)

Event Time Altitude Azimuth Distance (km) Brightness Sun altitude
Exits shadow 22:02:02 51° 160° (SSE) 868 1.9 -21.7°
Maximum altitude 22:03:14 85° 78° (ENE) 695 1.6 -21.9°
Drops below altitude 10° 22:07:56 10° 350° (N) 2,140 4.9 -22.7°
Sets 22:10:11 0° 349° (N) 3,060 5.8 -23.1°
